This is the latest recevied weather packets stored in our database for station/object KO4ZGL-13. If no packets are shown the sender has not sent any weather packets the latest 10 day(s).
| Time | Temp. | Humidity | Pressure | Rain* | Wind** | Luminosity | Snow |
|---|---|---|---|---|---|---|---|
| 1787411487 | 31.11° C | 77% | 1016.1 hPa | 0 mm | - | 662 W/m² | - |
| 1787411183 | 30° C | 78% | 1016.1 hPa | 0 mm | - | 619 W/m² | - |
| 1787410879 | 29.44° C | 80% | 1016.4 hPa | 0 mm | - | 734 W/m² | - |
| 1787410574 | 29.44° C | 80% | 1016.4 hPa | 0 mm | - | 667 W/m² | - |
| 1787410269 | 29.44° C | 81% | 1016.4 hPa | 0 mm | - | 602 W/m² | - |
| 1787409965 | 28.89° C | 83% | 1016 hPa | 0 mm | - | 328 W/m² | - |
| 1787409661 | 28.89° C | 83% | 1016.2 hPa | 0 mm | - | 613 W/m² | - |
| 1787409357 | 28.33° C | 85% | 1016.4 hPa | 0 mm | - | 583 W/m² | - |
| 1787409052 | 27.78° C | 86% | 1016.4 hPa | 0 mm | - | 569 W/m² | - |
| 1787408748 | 27.22° C | 88% | 1016.4 hPa | 0 mm | - | 559 W/m² | - |
| 1787408442 | 26.67° C | 91% | 1016.4 hPa | 0 mm | - | 524 W/m² | - |
| 1787408138 | 26.67° C | 93% | 1016.5 hPa | 0 mm | - | 503 W/m² | - |
| 1787407833 | 25.56° C | 96% | 1016.7 hPa | 0 mm | - | 498 W/m² | - |
| 1787407528 | 25° C | 97% | 1016.7 hPa | 0 mm | - | 453 W/m² | - |
| 1787407224 | 25° C | 99% | 1016.7 hPa | 0 mm | - | 455 W/m² | - |
| 1787406919 | 25° C | 99% | 1016.7 hPa | 0 mm | - | 448 W/m² | - |
| 1787406615 | 25° C | 99% | 1016.7 hPa | 0 mm | - | 436 W/m² | - |
| 1787406311 | 23.89° C | 99% | 1016.8 hPa | 0 mm | - | 182 W/m² | - |
| 1787406007 | 23.89° C | 99% | 1016.5 hPa | 0 mm | - | 365 W/m² | - |
| 1787405703 | 23.89° C | 99% | 1016.4 hPa | 0 mm | - | 137 W/m² | - |
| 1787405398 | 23.89° C | 99% | 1016.7 hPa | 0 mm | - | 116 W/m² | - |
| 1787405094 | 23.89° C | 99% | 1016.4 hPa | 0 mm | - | 380 W/m² | - |
| 1787404789 | 23.89° C | 99% | 1016.6 hPa | 0 mm | - | 166 W/m² | - |
| 1787404485 | 23.89° C | 99% | 1016.4 hPa | 0 mm | - | 116 W/m² | - |
| 1787404184 | 23.89° C | 99% | 1016.5 hPa | 0 mm | - | 142 W/m² | - |
* Rain latest hour (hover to see other rain measurements)
** Current wind speed in m/s (hover to see current wind gust speed)